Visibility
15.0 15.0 15.0 15.0 15.0 15.0 15.0 15.0 15.0 15.0 15.0 15.0 15.0 15.0 15.0 15.0 13.0 6.3 0.0 10.7 2.3 1.2 13.3 15.0 15.0 10.9 8.2 15.0 1.7 0.0 1.4 6.2 9.1 3.7 15.0 15.0 15.0 15.0 15.0 15.0 15.0 15.0 15.0 15.0 15.0 15.0 15.0 15.0 15.0 15.0 15.0 15.0 15.0 15.0
15.0 15.0 15.0 15.0 15.0 15.0 15.0 15.0 15.0 15.0 15.0 15.0 15.0 15.0 15.0 15.0 13.4 7.6 0.0 0.7 9.4 0.0 3.7 15.0 15.0 15.0 14.4 11.9 12.3 3.0 0.0 0.3 0.1 1.8 13.4 15.0 15.0 15.0 15.0 3.7 15.0 15.0 15.0 15.0 15.0 15.0 15.0 15.0 15.0 15.0 15.0 15.0 15.0 15.0
15.0 15.0 11.5 15.0 15.0 15.0 15.0 15.0 15.0 15.0 15.0 15.0 15.0 15.0 15.0 14.8 10.3 14.8 0.0 0.0 0.0 0.1 10.2 14.7 15.0 15.0 15.0 15.0 15.0 12.6 0.1 0.0 0.1 4.3 2.9 1.2 14.7 15.0 15.0 15.0 15.0 15.0 15.0 15.0 15.0 15.0 15.0 15.0 15.0 15.0 15.0 15.0 15.0 15.0
15.0 15.0 15.0 14.9 11.2 13.1 15.0 15.0 15.0 15.0 15.0 15.0 15.0 15.0 15.0 15.0 10.2 12.6 0.0 0.2 0.3 0.7 1.3 15.0 15.0 15.0 15.0 15.0 15.0 15.0 7.2 5.4 1.2 12.0 0.2 4.6 0.7 14.3 15.0 15.0 15.0 15.0 15.0 15.0 15.0 15.0 15.0 15.0 15.0 15.0 15.0 15.0 15.0 15.0
15.0 15.0 13.6 13.9 11.9 13.1 8.5 11.3 15.0 15.0 15.0 15.0 15.0 15.0 15.0 15.0 15.0 13.2 6.9 0.4 11.9 1.5 0.1 0.7 13.9 15.0 15.0 15.0 15.0 15.0 15.0 15.0 4.5 2.2 0.3 2.9 6.8 2.0 7.7 15.0 15.0 15.0 15.0 11.4 15.0 15.0 15.0 15.0 15.0 15.0 15.0 15.0 15.0 15.0
15.0 15.0 15.0 15.0 15.0 15.0 14.9 14.9 14.8 2.1 15.0 15.0 15.0 15.0 15.0 15.0 15.0 7.3 0.0 14.0 15.0 7.1 1.5 6.4 4.8 15.0 15.0 15.0 15.0 15.0 15.0 15.0 14.8 4.1 4.3 4.6 15.0 0.5 0.8 1.6 15.0 15.0 15.0 15.0 15.0 15.0 15.0 15.0 15.0 15.0 15.0 15.0 15.0 15.0
15.0 15.0 15.0 14.8 14.9 11.3 15.0 15.0 12.7 12.7 15.0 11.7 10.4 11.1 15.0 15.0 15.0 0.0 0.1 0.5 15.0 15.0 1.4 1.9 9.2 13.5 15.0 15.0 15.0 15.0 15.0 15.0 15.0 2.4 5.3 15.0 9.6 4.8 0.0 14.9 15.0 15.0 15.0 15.0 15.0 15.0 15.0 15.0 15.0 15.0 15.0 15.0 15.0 15.0
15.0 15.0 15.0 12.7 5.7 14.5 15.0 12.7 14.2 15.0 15.0 10.3 13.5 8.7 15.0 15.0 15.0 14.9 13.7 15.0 7.2 0.0 0.7 0.8 5.7 12.7 15.0 15.0 14.1 15.0 15.0 15.0 11.3 11.4 15.0 15.0 10.6 4.0 1.7 15.0 15.0 15.0 15.0 15.0 15.0 15.0 15.0 15.0 15.0 15.0 15.0 15.0 15.0 15.0
8.8 4.9 14.0 15.0 14.9 14.0 15.0 15.0 15.0 15.0 15.0 6.4 12.4 8.3 10.6 9.4 0.0 12.7 8.6 15.0 15.0 1.3 0.3 2.3 5.0 0.9 15.0 15.0 12.9 10.3 14.8 5.1 15.0 15.0 15.0 8.6 14.7 1.2 15.0 15.0 15.0 15.0 15.0 15.0 15.0 15.0 15.0 15.0 15.0 15.0 15.0 15.0 15.0 15.0
6.4 0.6 15.0 15.0 15.0 15.0 15.0 15.0 13.5 14.1 15.0 8.8 0.4 0.0 0.0 5.1 15.0 15.0 0.1 0.0 0.0 0.0 0.5 2.5 14.6 0.7 11.2 11.4 8.9 12.4 14.7 15.0 15.0 15.0 14.9 15.0 15.0 15.0 15.0 15.0 15.0 15.0 15.0 15.0 15.0 15.0 15.0 15.0 15.0 15.0 15.0 15.0 15.0 15.0
14.4 14.8 15.0 15.0 15.0 15.0 14.3 12.6 15.0 7.5 6.2 0.0 0.0 0.3 9.7 15.0 10.9 2.0 0.9 0.2 0.4 0.2 8.4 15.0 15.0 1.1 15.0 4.8 2.3 14.9 10.7 12.1 6.3 15.0 7.3 11.4 15.0 15.0 15.0 15.0 15.0 15.0 15.0 15.0 15.0 15.0 15.0 15.0 15.0 15.0 15.0 15.0 15.0 15.0
14.0 14.0 13.3 14.5 14.5 15.0 15.0 14.4 14.6 4.2 0.0 3.7 1.6 7.0 0.1 3.0 4.4 4.0 15.0 9.4 2.2 11.2 10.3 15.0 15.0 15.0 0.7 15.0 10.2 10.6 10.3 15.0 15.0 15.0 15.0 15.0 15.0 15.0 15.0 15.0 15.0 15.0 15.0 15.0 15.0 15.0 15.0 15.0 15.0 15.0 15.0 15.0 15.0 15.0
15.0 13.9 15.0 12.2 9.9 15.0 15.0 15.0 9.1 0.9 0.3 0.0 0.1 0.2 13.9 7.7 0.4 2.6 14.9 15.0 14.9 15.0 5.9 15.0 8.6 8.6 2.8 14.4 4.1 13.0 11.8 15.0 15.0 15.0 15.0 15.0 15.0 15.0 15.0 15.0 15.0 15.0 15.0 15.0 15.0 15.0 15.0 15.0 15.0 15.0 15.0 15.0 15.0 15.0
15.0 15.0 15.0 14.9 15.0 15.0 15.0 15.0 5.7 0.1 0.1 0.0 0.2 0.4 7.3 0.5 15.0 15.0 15.0 15.0 15.0 15.0 15.0 15.0 14.9 15.0 15.0 8.7 5.1 3.5 15.0 15.0 15.0 15.0 15.0 15.0 15.0 15.0 15.0 15.0 15.0 15.0 15.0 15.0 15.0 15.0 15.0 15.0 15.0 14.4 13.4 13.4 0.0 0.0
15.0 15.0 15.0 12.8 15.0 15.0 6.7 14.0 8.6 0.1 0.0 0.3 1.5 1.1 15.0 15.0 10.4 15.0 15.0 12.9 10.4 15.0 15.0 12.9 8.2 10.5 10.0 0.8 9.4 4.1 2.1 13.3 15.0 15.0 15.0 15.0 15.0 15.0 15.0 15.0 15.0 15.0 15.0 15.0 15.0 15.0 15.0 15.0 15.0 6.6 0.0 0.1 4.9 0.0
15.0 11.5 4.6 5.7 14.8 12.5 9.7 3.8 0.4 0.2 0.0 1.0 15.0 15.0 13.3 15.0 14.8 14.1 15.0 10.7 15.0 15.0 14.4 5.3 0.9 1.4 0.8 10.9 10.8 7.2 15.0 15.0 15.0 15.0 15.0 15.0 15.0 15.0 15.0 15.0 15.0 15.0 15.0 15.0 15.0 15.0 15.0 15.0 15.0 15.0 10.0 15.0 0.0 0.0
1.8 0.0 8.7 6.7 2.6 2.4 4.2 0.1 0.1 0.1 0.8 4.7 15.0 14.6 10.8 14.2 12.5 15.0 15.0 15.0 15.0 11.4 13.5 5.5 4.2 5.9 15.0 7.9 15.0 14.9 14.1 15.0 15.0 15.0 15.0 15.0 15.0 15.0 15.0 15.0 15.0 15.0 15.0 15.0 15.0 15.0 15.0 15.0 15.0 15.0 15.0 14.2 3.4 7.5
0.1 1.2 11.8 12.3 15.0 15.0 12.3 12.9 2.8 3.3 15.0 15.0 15.0 15.0 15.0 14.4 15.0 15.0 15.0 15.0 15.0 15.0 14.1 15.0 11.9 14.1 13.5 15.0 15.0 15.0 15.0 15.0 15.0 15.0 15.0 15.0 15.0 15.0 15.0 15.0 15.0 15.0 15.0 15.0 15.0 15.0 15.0 15.0 15.0 15.0 15.0 15.0 15.0 15.0
15.0 15.0 15.0 15.0 15.0 15.0 0.2 8.4 15.0 15.0 15.0 15.0 15.0 15.0 15.0 15.0 15.0 14.2 15.0 15.0 15.0 15.0 10.9 11.5 5.5 14.7 15.0 15.0 15.0 15.0 15.0 15.0 15.0 15.0 15.0 15.0 15.0 15.0 15.0 15.0 15.0 7.9 15.0 15.0 15.0 15.0 15.0 15.0 15.0 15.0 15.0 15.0 15.0 15.0
15.0 15.0 15.0 15.0 15.0 15.0 15.0 15.0 15.0 15.0 15.0 15.0 15.0 15.0 15.0 15.0 15.0 15.0 14.8 15.0 13.2 12.5 8.8 3.3 15.0 15.0 5.9 15.0 15.0 15.0 15.0 15.0 15.0 14.5 15.0 15.0 15.0 15.0 7.4 5.4 6.6 15.0 15.0 15.0 14.7 8.6 14.1 14.4 15.0 15.0 15.0 15.0 15.0 15.0
15.0 15.0 15.0 15.0 15.0 15.0 15.0 15.0 15.0 15.0 15.0 15.0 15.0 15.0 14.6 15.0 15.0 13.0 12.2 11.5 11.6 14.8 15.0 15.0 15.0 14.8 15.0 15.0 15.0 15.0 15.0 15.0 15.0 15.0 15.0 15.0 15.0 7.7 7.8 0.2 0.1 15.0 15.0 9.1 15.0 14.9 15.0 15.0 15.0 15.0 15.0 15.0 15.0 15.0
15.0 15.0 15.0 15.0 15.0 15.0 15.0 14.3 15.0 11.3 15.0 15.0 8.1 12.0 14.9 2.7 8.3 9.0 12.0 3.4 4.1 14.8 15.0 13.7 4.5 15.0 15.0 15.0 15.0 15.0 15.0 15.0 15.0 15.0 13.9 8.6 0.1 0.0 0.0 0.0 11.1 15.0 15.0 14.0 15.0 15.0 15.0 15.0 15.0 15.0 3.9 0.0 15.0 15.0
15.0 15.0 10.1 15.0 14.1 15.0 9.4 15.0 2.1 2.0 0.5 0.5 0.8 0.1 0.2 0.2 1.7 1.5 0.2 5.1 8.2 15.0 15.0 15.0 15.0 15.0 15.0 15.0 15.0 15.0 15.0 15.0 15.0 14.4 4.2 0.1 0.0 1.7 15.0 15.0 15.0 15.0 15.0 15.0 15.0 15.0 15.0 15.0 15.0 15.0 15.0 15.0 7.4 0.2
15.0 8.5 8.5 7.0 6.2 1.1 2.9 0.2 3.2 1.4 0.5 1.8 0.4 0.2 0.2 1.1 8.1 4.5 3.2 8.4 6.2 15.0 15.0 15.0 15.0 15.0 15.0 15.0 15.0 15.0 12.0 3.5 1.2 0.1 0.0 0.0 0.1 4.1 13.1 13.9 15.0 15.0 15.0 15.0 15.0 15.0 15.0 11.7 15.0 15.0 15.0 0.1 0.1 0.1
3.4 4.5 1.5 6.5 7.2 2.1 3.9 2.9 6.3 13.8 4.2 2.9 2.4 2.1 5.3 10.1 0.1 0.2 0.4 1.8 7.0 9.1 11.8 6.7 3.9 14.4 8.8 5.4 0.1 0.0 0.0 0.0 0.4 0.2 0.2 6.6 14.9 14.2 14.9 14.7 8.1 15.0 12.5 8.0 4.7 2.9 1.5 1.4 2.2 12.3 4.2 1.4 1.0 0.8
2.1 10.5 1.1 8.4 7.1 8.8 7.5 10.4 10.8 11.1 15.0 2.5 1.0 14.3 9.2 3.0 4.6 0.3 2.0 0.3 0.2 0.1 0.1 0.1 0.0 0.2 0.1 2.0 0.9 0.3 0.3 3.7 15.0 8.1 2.4 5.0 5.8 15.0 12.5 10.7 15.0 2.2 7.8 14.5 9.7 1.7 0.8 1.3 1.1 0.8 0.2 0.3 0.7 0.7
6.5 10.7 15.0 15.0 15.0 14.9 8.5 13.4 15.0 15.0 15.0 15.0 7.3 0.5 5.1 2.5 8.2 1.0 9.2 4.3 0.7 0.4 0.4 3.7 15.0 15.0 15.0 8.9 5.6 15.0 15.0 15.0 15.0 4.4 9.5 15.0 15.0 15.0 6.2 1.0 0.5 0.1 0.1 6.5 2.7 1.8 0.5 0.5 0.3 0.2 0.1 0.3 0.7 4.1
8.5 12.9 9.6 9.8 14.0 15.0 8.5 14.9 15.0 13.8 13.1 15.0 15.0 15.0 15.0 13.5 0.9 0.7 3.2 12.4 15.0 11.8 1.8 2.9 15.0 15.0 15.0 15.0 11.3 13.7 13.1 14.9 7.2 14.7 14.9 10.8 14.1 6.5 7.0 2.6 1.0 1.8 0.4 0.1 0.1 0.2 0.2 0.2 0.2 0.1 0.1 0.1 0.1 0.1
9.8 15.0 15.0 15.0 15.0 13.9 13.6 14.8 14.7 15.0 15.0 14.9 11.8 15.0 15.0 15.0 7.3 1.3 2.7 15.0 14.8 3.9 0.2 0.3 0.4 9.9 7.0 2.6 0.8 0.4 7.1 1.6 1.2 6.8 9.3 1.1 1.4 0.2 2.8 6.6 5.1 4.2 2.5 1.2 0.8 0.6 0.2 0.7 6.7 4.5 2.6 2.4 2.6 15.0
10.7 15.0 14.8 15.0 15.0 15.0 11.7 15.0 14.4 15.0 15.0 15.0 15.0 15.0 13.2 3.3 8.0 13.6 12.3 10.0 3.5 0.8 0.6 0.9 1.3 10.2 8.2 12.5 1.2 0.7 0.9 0.1 0.1 8.0 13.9 3.7 0.9 5.6 10.4 15.0 15.0 15.0 15.0 15.0 15.0 15.0 15.0 15.0 15.0 15.0 15.0 15.0 15.0 15.0
15.0 13.1 5.8 15.0 15.0 15.0 15.0 10.0 6.7 15.0 15.0 15.0 14.9 0.4 1.7 4.5 10.5 15.0 14.0 2.2 1.3 0.6 0.3 0.3 0.8 1.2 7.0 15.0 9.3 13.2 1.3 5.0 15.0 15.0 15.0 15.0 15.0 15.0 15.0 15.0 15.0 15.0 15.0 15.0 15.0 15.0 15.0 15.0 15.0 15.0 15.0 15.0 15.0 15.0
3.6 0.4 0.8 8.0 2.2 3.7 7.9 8.7 14.5 14.5 15.0 4.9 4.4 8.0 4.8 2.7 3.2 8.8 11.4 2.1 0.9 0.6 0.5 0.7 14.8 0.3 1.3 2.9 13.3 7.1 15.0 15.0 15.0 15.0 15.0 15.0 15.0 15.0 15.0 15.0 15.0 15.0 15.0 15.0 15.0 15.0 15.0 15.0 15.0 15.0 15.0 15.0 15.0 11.6
2.5 2.0 0.3 0.5 0.6 1.0 5.6 6.0 7.3 5.9 7.0 9.7 7.8 13.0 10.6 1.8 3.6 3.8 14.2 5.0 0.4 7.7 12.5 1.4 7.1 12.6 12.8 15.0 15.0 15.0 15.0 15.0 15.0 15.0 15.0 15.0 15.0 15.0 15.0 15.0 15.0 15.0 15.0 15.0 15.0 15.0 15.0 15.0 15.0 15.0 13.5 7.4 3.8 3.1